{"data":{"norad_id":39427,"epoch":"2026-05-25T04:46:57.860256Z","epoch_age_seconds":61023,"freshness":"FRESH","line1":"1 39427U 13066M   26145.19928079  .00002653  00000+0  32224-3 0  9995","line2":"2 39427  97.8255  55.5293 0089023 310.1210  49.2226 14.81596975670689","mean_motion":14.81596975,"eccentricity":0.0089023,"inclination_deg":97.8255,"raan_deg":55.5293,"arg_perigee_deg":310.121,"mean_anomaly_deg":49.2226,"bstar":0.00032224,"rev_number":67068,"period_min":97.192423060934,"perigee_km":561.95010297018,"apogee_km":686.62547537145,"semimajor_km":7002.4247891708,"source":"CELESTRAK","updated_at":"2026-05-25T13:38:25.493830Z"}}